| time (UTC) | temp F | wind direction | speed MPH | gust MPH | rain 1hr in | rain 24hr in | rain mn in | humidity % | barometer mb |
| 20260503192545 | 43 | 267 | 2.0 | 5.0 | 0.00 | 0.04 | 0.00 | 58 | 1006.0 |
| 20260503192043 | 42 | 268 | 2.0 | 5.0 | 0.00 | 0.04 | 0.00 | 61 | 1006.1 |
| 20260503191600 | 42 | 259 | 2.0 | 5.0 | 0.00 | 0.04 | 0.00 | 59 | 1006.1 |
| 20260503191046 | 42 | 281 | 2.0 | 11.0 | 0.00 | 0.04 | 0.00 | 57 | 1006.2 |
| 20260503190546 | 42 | 294 | 2.0 | 11.0 | 0.00 | 0.04 | 0.00 | 56 | 1006.2 |
| 20260503190050 | 43 | 307 | 3.0 | 9.0 | 0.00 | 0.04 | 0.00 | 52 | 1006.1 |
| 20260503185545 | 43 | 259 | 3.0 | 6.0 | 0.00 | 0.04 | 0.00 | 51 | 1006.1 |
| 20260503185045 | 44 | 278 | 2.0 | 6.0 | 0.00 | 0.04 | 0.00 | 50 | 1006.0 |
| 20260503184551 | 45 | 297 | 2.0 | 7.0 | 0.00 | 0.04 | 0.00 | 51 | 1006.1 |
| 20260503184045 | 44 | 279 | 2.0 | 7.0 | 0.00 | 0.04 | 0.00 | 51 | 1005.9 |
| 20260503183544 | 44 | 248 | 3.0 | 6.0 | 0.00 | 0.04 | 0.00 | 54 | 1006.1 |
| 20260503183058 | 43 | 328 | 2.0 | 6.0 | 0.00 | 0.04 | 0.00 | 53 | 1006.0 |
| 20260503182545 | 44 | 275 | 2.0 | 5.0 | 0.00 | 0.04 | 0.00 | 54 | 1006.1 |
| 20260503182045 | 43 | 259 | 3.0 | 6.0 | 0.00 | 0.04 | 0.00 | 51 | 1006.0 |
| 20260503181605 | 44 | 305 | 2.0 | 6.0 | 0.00 | 0.04 | 0.00 | 53 | 1006.1 |
| 20260503181048 | 43 | 329 | 2.0 | 7.0 | 0.00 | 0.04 | 0.00 | 52 | 1006.1 |
| 20260503180544 | 44 | 301 | 3.0 | 8.0 | 0.00 | 0.04 | 0.00 | 55 | 1006.0 |
| 20260503180054 | 44 | 264 | 2.0 | 8.0 | 0.00 | 0.04 | 0.00 | 52 | 1005.9 |
| 20260503175544 | 44 | 290 | 3.0 | 8.0 | 0.00 | 0.04 | 0.00 | 52 | 1005.9 |
| 20260503175043 | 44 | 289 | 2.0 | 7.0 | 0.00 | 0.04 | 0.00 | 48 | 1005.8 |
| 20260503174604 | 44 | 309 | 3.0 | 7.0 | 0.00 | 0.04 | 0.00 | 49 | 1006.0 |
| 20260503174045 | 44 | 178 | 4.0 | 7.0 | 0.00 | 0.04 | 0.00 | 51 | 1006.0 |
| 20260503173544 | 44 | 156 | 3.0 | 7.0 | 0.00 | 0.04 | 0.00 | 49 | 1006.1 |
| 20260503173052 | 44 | 288 | 3.0 | 7.0 | 0.00 | 0.04 | 0.00 | 53 | 1006.0 |
| 20260503172546 | 44 | 243 | 4.0 | 7.0 | 0.00 | 0.04 | 0.00 | 52 | 1006.0 |
| 20260503172045 | 44 | 257 | 3.0 | 7.0 | 0.00 | 0.04 | 0.00 | 51 | 1005.9 |
| 20260503171548 | 43 | 255 | 3.0 | 8.0 | 0.00 | 0.04 | 0.00 | 51 | 1005.9 |
| 20260503171044 | 43 | 280 | 3.0 | 8.0 | 0.00 | 0.04 | 0.00 | 53 | 1006.1 |
| 20260503170544 | 43 | 252 | 5.0 | 8.0 | 0.00 | 0.04 | 0.00 | 52 | 1005.9 |
| 20260503170105 | 44 | 148 | 3.0 | 8.0 | 0.00 | 0.04 | 0.00 | 48 | 1006.1 |
| 20260503150545 | 44 | 178 | 4.0 | 11.0 | 0.00 | 0.04 | 0.00 | 55 | 1006.6 |
| 20260503131044 | 39 | 341 | 1.0 | 4.0 | 0.00 | 0.04 | 0.00 | 74 | 1007.1 |
| 20260503130544 | 39 | 306 | 2.0 | 4.0 | 0.00 | 0.04 | 0.00 | 74 | 1007.2 |
| 20260503120117 | 37 | 253 | 1.0 | 4.0 | 0.00 | 0.04 | 0.00 | 83 | 1007.2 |
| 20260503110545 | 35 | 351 | 2.0 | 6.0 | 0.00 | 0.04 | 0.00 | 87 | 1006.9 |
| 20260503081548 | 35 | 304 | 1.0 | 3.0 | 0.00 | 0.05 | 0.00 | 89 | 1007.6 |
| 20260503081049 | 35 | 310 | 1.0 | 3.0 | 0.00 | 0.05 | 0.00 | 89 | 1007.6 |
| 20260503080550 | 35 | 358 | 1.0 | 3.0 | 0.00 | 0.05 | 0.00 | 89 | 1007.7 |
| 20260503072551 | 35 | 312 | 1.0 | 4.0 | 0.00 | 0.05 | 0.00 | 87 | 1007.8 |
| 20260503072044 | 35 | 309 | 1.0 | 4.0 | 0.00 | 0.05 | 0.00 | 88 | 1007.7 |
| 20260503071555 | 35 | 303 | 1.0 | 4.0 | 0.00 | 0.05 | 0.00 | 87 | 1007.9 |
| 20260503071047 | 35 | 303 | 1.0 | 4.0 | 0.00 | 0.05 | 0.00 | 88 | 1007.8 |
| 20260503070547 | 35 | 319 | 0.0 | 2.0 | 0.00 | 0.05 | 0.00 | 89 | 1008.0 |
| 20260503055041 | 35 | 302 | 0.0 | 2.0 | 0.00 | 0.05 | 0.00 | 90 | 1008.3 |
| 20260503054548 | 35 | 317 | 1.0 | 2.0 | 0.00 | 0.05 | 0.00 | 90 | 1008.3 |
| 20260503054043 | 35 | 305 | 0.0 | 1.0 | 0.00 | 0.05 | 0.00 | 90 | 1008.4 |
| 20260503053543 | 35 | 21 | 0.0 | 1.0 | 0.00 | 0.05 | 0.00 | 91 | 1008.4 |
| 20260503053049 | 35 | 0 | 0.0 | 1.0 | 0.00 | 0.05 | 0.00 | 91 | 1008.6 |
| 20260503052541 | 35 | 322 | 0.0 | 1.0 | 0.00 | 0.05 | 0.00 | 91 | 1008.5 |
| 20260503052042 | 35 | 326 | 0.0 | 0.0 | 0.00 | 0.05 | 0.00 | 92 | 1008.6 |
| 20260503051550 | 35 | 0 | 0.0 | 0.0 | 0.00 | 0.05 | 0.00 | 92 | 1008.7 |
| 20260503051044 | 35 | 0 | 0.0 | 0.0 | 0.00 | 0.05 | 0.00 | 92 | 1008.7 |
| 20260503050544 | 35 | 0 | 0.0 | 0.0 | 0.00 | 0.05 | 0.00 | 92 | 1009.0 |
| 20260503050058 | 34 | 0 | 0.0 | 0.0 | 0.00 | 0.05 | 0.00 | 92 | 1008.9 |
| 20260503045542 | 34 | 0 | 0.0 | 0.0 | 0.00 | 0.05 | 0.00 | 93 | 1009.1 |
| 20260503045042 | 34 | 0 | 0.0 | 0.0 | 0.00 | 0.05 | 0.00 | 94 | 1009.1 |
| 20260503044602 | 34 | 0 | 0.0 | 1.0 | 0.00 | 0.05 | 0.00 | 94 | 1009.1 |
| 20260503044041 | 34 | 0 | 0.0 | 1.0 | 0.00 | 0.05 | 0.00 | 93 | 1009.2 |
| 20260503043545 | 34 | 0 | 0.0 | 1.0 | 0.00 | 0.05 | 0.00 | 93 | 1009.2 |
| 20260503043048 | 34 | 0 | 0.0 | 1.0 | 0.00 | 0.05 | 0.00 | 93 | 1009.2 |
| 20260503042544 | 34 | 0 | 0.0 | 0.0 | 0.00 | 0.05 | 0.00 | 92 | 1009.3 |
| 20260503042044 | 34 | 0 | 0.0 | 2.0 | 0.00 | 0.05 | 0.00 | 91 | 1009.4 |
| 20260503041610 | 34 | 0 | 0.0 | 2.0 | 0.00 | 0.05 | 0.00 | 91 | 1009.4 |
| 20260503041044 | 34 | 352 | 0.0 | 1.0 | 0.00 | 0.05 | 0.00 | 91 | 1009.4 |
| 20260503040542 | 34 | 0 | 0.0 | 1.0 | 0.00 | 0.05 | 0.00 | 91 | 1009.3 |
| 20260503040053 | 34 | 0 | 0.0 | 2.0 | 0.00 | 0.05 | 0.00 | 91 | 1009.4 |
| 20260503035542 | 34 | 320 | 0.0 | 2.0 | 0.00 | 0.05 | 0.05 | 90 | 1009.4 |
| 20260503035044 | 34 | 0 | 0.0 | 2.0 | 0.00 | 0.05 | 0.05 | 90 | 1009.5 |
| 20260503034552 | 34 | 0 | 0.0 | 2.0 | 0.00 | 0.05 | 0.05 | 89 | 1009.4 |
| 20260503034044 | 34 | 0 | 0.0 | 2.0 | 0.00 | 0.05 | 0.05 | 90 | 1009.4 |
| 20260503033541 | 34 | 0 | 0.0 | 1.0 | 0.00 | 0.05 | 0.05 | 90 | 1009.4 |
| 20260503033114 | 34 | 311 | 0.0 | 1.0 | 0.00 | 0.05 | 0.05 | 89 | 1009.5 |
| 20260503032546 | 34 | 302 | 0.0 | 3.0 | 0.00 | 0.05 | 0.05 | 89 | 1009.5 |
| 20260503032046 | 34 | 328 | 0.0 | 3.0 | 0.00 | 0.05 | 0.05 | 89 | 1009.6 |
| 20260503031557 | 34 | 295 | 0.0 | 1.0 | 0.00 | 0.05 | 0.05 | 89 | 1009.6 |
| 20260503031045 | 34 | 0 | 0.0 | 1.0 | 0.00 | 0.05 | 0.05 | 89 | 1009.6 |
| 20260503030544 | 34 | 343 | 0.0 | 2.0 | 0.00 | 0.05 | 0.05 | 89 | 1009.7 |
| 20260503030105 | 35 | 316 | 0.0 | 2.0 | 0.00 | 0.05 | 0.05 | 88 | 1009.6 |
| 20260503025545 | 35 | 317 | 0.0 | 7.0 | 0.00 | 0.05 | 0.05 | 88 | 1009.8 |
| 20260503025045 | 35 | 0 | 0.0 | 7.0 | 0.00 | 0.05 | 0.05 | 89 | 1009.8 |
| 20260503024552 | 35 | 260 | 1.0 | 7.0 | 0.00 | 0.05 | 0.05 | 88 | 1009.7 |
| 20260503024041 | 35 | 316 | 0.0 | 2.0 | 0.00 | 0.05 | 0.05 | 88 | 1009.7 |
| 20260503023542 | 36 | 66 | 0.0 | 2.0 | 0.00 | 0.05 | 0.05 | 88 | 1009.7 |
| 20260503023054 | 36 | 308 | 0.0 | 2.0 | 0.00 | 0.05 | 0.05 | 88 | 1009.8 |
| 20260503022542 | 36 | 0 | 0.0 | 1.0 | 0.00 | 0.05 | 0.05 | 89 | 1009.9 |
| 20260503022042 | 36 | 335 | 0.0 | 1.0 | 0.00 | 0.05 | 0.05 | 89 | 1009.9 |
| 20260503021551 | 36 | 305 | 0.0 | 3.0 | 0.00 | 0.05 | 0.05 | 89 | 1010.0 |
| 20260503021045 | 36 | 0 | 0.0 | 3.0 | 0.00 | 0.05 | 0.05 | 89 | 1010.0 |
| 20260503020542 | 36 | 298 | 0.0 | 3.0 | 0.00 | 0.05 | 0.05 | 89 | 1010.0 |
| 20260503020055 | 36 | 0 | 0.0 | 1.0 | 0.00 | 0.05 | 0.05 | 90 | 1010.1 |
| 20260503015546 | 36 | 0 | 0.0 | 1.0 | 0.00 | 0.05 | 0.05 | 90 | 1010.0 |
| 20260503015044 | 37 | 284 | 0.0 | 2.0 | 0.00 | 0.05 | 0.05 | 90 | 1010.1 |
| 20260503014550 | 37 | 352 | 0.0 | 2.0 | 0.00 | 0.05 | 0.05 | 90 | 1010.2 |
| 20260503014044 | 37 | 0 | 0.0 | 2.0 | 0.00 | 0.05 | 0.05 | 89 | 1010.2 |
| 20260503013545 | 37 | 288 | 0.0 | 2.0 | 0.00 | 0.05 | 0.05 | 89 | 1010.2 |
| 20260503013051 | 37 | 285 | 0.0 | 2.0 | 0.00 | 0.05 | 0.05 | 89 | 1010.2 |
| 20260503012545 | 37 | 283 | 0.0 | 2.0 | 0.00 | 0.05 | 0.05 | 90 | 1010.3 |
| 20260503012044 | 37 | 309 | 0.0 | 2.0 | 0.00 | 0.05 | 0.05 | 91 | 1010.2 |
| 20260503011548 | 37 | 290 | 0.0 | 2.0 | 0.00 | 0.05 | 0.05 | 90 | 1010.3 |
| 20260503011047 | 37 | 285 | 0.0 | 3.0 | 0.00 | 0.05 | 0.05 | 91 | 1010.1 |
| 20260503010544 | 37 | 311 | 1.0 | 3.0 | 0.00 | 0.05 | 0.05 | 89 | 1010.1 |
| 20260503010050 | 37 | 302 | 1.0 | 3.0 | 0.00 | 0.05 | 0.05 | 90 | 1010.1 |
| 20260503005542 | 37 | 315 | 1.0 | 3.0 | 0.00 | 0.05 | 0.05 | 90 | 1009.9 |
| 20260503005042 | 37 | 345 | 1.0 | 3.0 | 0.00 | 0.05 | 0.05 | 90 | 1009.9 |
| 20260503004608 | 37 | 32 | 1.0 | 3.0 | 0.00 | 0.05 | 0.05 | 90 | 1009.9 |
| 20260503004041 | 37 | 334 | 1.0 | 3.0 | 0.00 | 0.05 | 0.05 | 90 | 1009.7 |
| 20260503003541 | 37 | 295 | 1.0 | 2.0 | 0.00 | 0.05 | 0.05 | 91 | 1009.7 |
| 20260503003046 | 37 | 283 | 1.0 | 2.0 | 0.00 | 0.05 | 0.05 | 91 | 1009.7 |
| 20260503002542 | 37 | 321 | 0.0 | 2.0 | 0.00 | 0.05 | 0.05 | 92 | 1009.6 |
| 20260503002042 | 37 | 0 | 0.0 | 2.0 | 0.00 | 0.05 | 0.05 | 92 | 1009.7 |
| 20260503001550 | 37 | 178 | 0.0 | 2.0 | 0.00 | 0.05 | 0.05 | 92 | 1009.5 |
| 20260503001041 | 37 | 0 | 0.0 | 0.0 | 0.00 | 0.05 | 0.05 | 92 | 1009.6 |
| 20260503000542 | 37 | 0 | 0.0 | 2.0 | 0.00 | 0.05 | 0.05 | 92 | 1009.4 |
| 20260503000049 | 38 | 0 | 0.0 | 2.0 | 0.00 | 0.05 | 0.05 | 92 | 1009.3 |
| 20260502235541 | 38 | 0 | 0.0 | 1.0 | 0.00 | 0.05 | 0.05 | 91 | 1009.3 |
| 20260502235041 | 38 | 349 | 0.0 | 1.0 | 0.00 | 0.05 | 0.05 | 91 | 1009.3 |
| 20260502234553 | 38 | 273 | 0.0 | 5.0 | 0.00 | 0.05 | 0.05 | 91 | 1009.2 |
| 20260502234041 | 38 | 356 | 0.0 | 5.0 | 0.00 | 0.05 | 0.05 | 91 | 1009.3 |
| 20260502233545 | 39 | 284 | 1.0 | 2.0 | 0.00 | 0.05 | 0.05 | 91 | 1009.2 |
| 20260502233051 | 39 | 309 | 0.0 | 4.0 | 0.00 | 0.05 | 0.05 | 92 | 1009.1 |
| 20260502232544 | 39 | 302 | 1.0 | 4.0 | 0.00 | 0.05 | 0.05 | 91 | 1009.2 |
| 20260502232041 | 39 | 178 | 1.0 | 4.0 | 0.00 | 0.05 | 0.05 | 93 | 1009.2 |
| 20260502231548 | 39 | 178 | 1.0 | 4.0 | 0.00 | 0.05 | 0.05 | 93 | 1009.2 |
| 20260502231043 | 39 | 278 | 1.0 | 2.0 | 0.00 | 0.05 | 0.05 | 94 | 1009.1 |
| 20260502230541 | 39 | 278 | 1.0 | 2.0 | 0.00 | 0.05 | 0.05 | 94 | 1009.1 |
| 20260502230050 | 39 | 288 | 1.0 | 2.0 | 0.01 | 0.05 | 0.05 | 93 | 1008.9 |
| 20260502225543 | 39 | 311 | 1.0 | 2.0 | 0.02 | 0.05 | 0.05 | 93 | 1008.9 |
| 20260502225043 | 39 | 272 | 0.0 | 1.0 | 0.04 | 0.05 | 0.05 | 93 | 1008.9 |
| 20260502224554 | 39 | 287 | 0.0 | 1.0 | 0.04 | 0.05 | 0.05 | 93 | 1008.7 |
| 20260502224044 | 39 | 294 | 0.0 | 2.0 | 0.04 | 0.05 | 0.05 | 92 | 1008.6 |
| 20260502223542 | 39 | 295 | 0.0 | 2.0 | 0.04 | 0.05 | 0.05 | 92 | 1008.6 |
| 20260502223051 | 39 | 292 | 1.0 | 2.0 | 0.04 | 0.05 | 0.05 | 92 | 1008.5 |
| 20260502222545 | 40 | 269 | 0.0 | 4.0 | 0.04 | 0.05 | 0.05 | 92 | 1008.6 |
| 20260502222045 | 40 | 283 | 1.0 | 4.0 | 0.04 | 0.05 | 0.05 | 92 | 1008.5 |
| 20260502221552 | 40 | 178 | 1.0 | 3.0 | 0.04 | 0.05 | 0.05 | 91 | 1008.6 |
| 20260502221041 | 40 | 288 | 1.0 | 3.0 | 0.04 | 0.05 | 0.05 | 90 | 1008.5 |
| 20260502220541 | 40 | 295 | 1.0 | 3.0 | 0.04 | 0.05 | 0.05 | 88 | 1008.7 |
| 20260502220136 | 41 | 262 | 1.0 | 3.0 | 0.03 | 0.04 | 0.04 | 85 | 1008.9 |
| 20260502215543 | 42 | 272 | 1.0 | 3.0 | 0.02 | 0.03 | 0.03 | 80 | 1008.8 |
| 20260502215044 | 43 | 248 | 1.0 | 3.0 | 0.00 | 0.01 | 0.01 | 77 | 1008.7 |
| 20260502214547 | 43 | 239 | 2.0 | 5.0 | 0.00 | 0.01 | 0.01 | 75 | 1008.5 |
| 20260502214044 | 43 | 271 | 1.0 | 5.0 | 0.00 | 0.01 | 0.01 | 75 | 1008.3 |
| 20260502213544 | 44 | 261 | 2.0 | 4.0 | 0.00 | 0.01 | 0.01 | 75 | 1008.3 |
| 20260502213047 | 44 | 178 | 1.0 | 4.0 | 0.00 | 0.01 | 0.01 | 75 | 1008.3 |
| 20260502212544 | 44 | 256 | 1.0 | 4.0 | 0.00 | 0.01 | 0.01 | 73 | 1008.3 |
| 20260502212046 | 45 | 257 | 2.0 | 4.0 | 0.00 | 0.01 | 0.01 | 71 | 1008.1 |
| 20260502211548 | 46 | 307 | 1.0 | 3.0 | 0.00 | 0.01 | 0.01 | 72 | 1008.1 |
| 20260502211047 | 46 | 300 | 1.0 | 3.0 | 0.00 | 0.01 | 0.01 | 73 | 1007.9 |
| 20260502210543 | 46 | 264 | 1.0 | 3.0 | 0.00 | 0.01 | 0.01 | 71 | 1008.0 |
| 20260502210101 | 46 | 47 | 1.0 | 3.0 | 0.00 | 0.01 | 0.01 | 71 | 1008.1 |
| 20260502205543 | 46 | 261 | 0.0 | 2.0 | 0.00 | 0.01 | 0.01 | 67 | 1008.0 |
| 20260502205047 | 46 | 193 | 0.0 | 4.0 | 0.00 | 0.01 | 0.01 | 63 | 1008.1 |
| 20260502204604 | 47 | 241 | 2.0 | 4.0 | 0.00 | 0.01 | 0.01 | 62 | 1008.0 |
| 20260502204047 | 47 | 266 | 2.0 | 4.0 | 0.00 | 0.01 | 0.01 | 62 | 1008.0 |
| 20260502203547 | 47 | 265 | 2.0 | 6.0 | 0.00 | 0.01 | 0.01 | 62 | 1008.0 |
| 20260502203100 | 48 | 262 | 2.0 | 6.0 | 0.00 | 0.01 | 0.01 | 62 | 1008.0 |
| 20260502202546 | 48 | 236 | 1.0 | 3.0 | 0.00 | 0.01 | 0.01 | 60 | 1007.8 |
| 20260502202044 | 47 | 278 | 1.0 | 3.0 | 0.00 | 0.01 | 0.01 | 61 | 1007.9 |
| 20260502201549 | 47 | 262 | 1.0 | 3.0 | 0.00 | 0.01 | 0.01 | 61 | 1007.8 |
| 20260502201044 | 47 | 273 | 1.0 | 2.0 | 0.00 | 0.01 | 0.01 | 62 | 1007.9 |
| 20260502200544 | 47 | 276 | 0.0 | 2.0 | 0.00 | 0.01 | 0.01 | 63 | 1008.0 |
| 20260502200050 | 47 | 229 | 0.0 | 2.0 | 0.00 | 0.01 | 0.01 | 63 | 1008.0 |
| 20260502195543 | 47 | 347 | 1.0 | 2.0 | 0.00 | 0.01 | 0.01 | 61 | 1008.0 |
| 20260502195043 | 48 | 275 | 0.0 | 4.0 | 0.00 | 0.01 | 0.01 | 61 | 1008.1 |
| 20260502194553 | 47 | 222 | 2.0 | 5.0 | 0.00 | 0.01 | 0.01 | 62 | 1008.1 |
| 20260502194043 | 47 | 193 | 1.0 | 5.0 | 0.00 | 0.01 | 0.01 | 62 | 1008.3 |
| 20260502193545 | 46 | 217 | 0.0 | 5.0 | 0.00 | 0.01 | 0.01 | 61 | 1008.3 |
| 20260502193049 | 46 | 193 | 1.0 | 2.0 | 0.00 | 0.01 | 0.01 | 63 | 1008.5 |